Torna al catalogo

STARLINK-5154

AttivoComunicazioniVLEO
NORAD 54176·PAYLOAD·🇺🇸 United States

Lanciato Oct 28, 2022 da Vandenberg Space Force Base

Loading…

Prossimi Passaggi (prossime 24 ore)

TLE

AggiornatoSource: CelesTrak SupGP

Epoca: Sep 14, 2026, 14:41 UTC

1 54176C 22141V   26257.61229167 -.00021064  00000+0 -62241-3 0  2578
2 54176  53.1568 220.9441 0001404  90.3245 296.5366 15.34397853    13

Traccia STARLINK-5154 in tempo reale con AllMySat

Download on the App Store